Location: Newark
(14.6670°N, 74.3000°E)
Time: 10:44:45
(UTC+00:00)

ISS - Visible Passes

Search period start: 16 October 2019 00:00
Search period end: 26 October 2019 00:00
Orbit: 411 x 421 km, 51.6° (Epoch: 16 October)

Date Brightness Start Highest point End Pass type
(mag) Time Alt. Az. Time Alt. Az. Time Alt. Az.
16 Oct -1.0 13:10:56 10° WNW 13:13:34 22° SW 13:16:11 10° S visible
20 Oct -1.1 00:04:06 10° S 00:06:46 22° SE 00:09:26 10° ENE visible
22 Oct -3.9 00:02:53 10° SW 00:06:13 71° NW 00:09:33 10° NNE visible
22 Oct -2.5 23:18:10 41° E 23:18:10 41° E 23:20:56 10° NE visible
24 Oct -1.9 00:06:06 16° NW 00:06:06 16° NW 00:07:57 10° N visible
